Погода в Вакуленчуке

Украина / Житомирская область     49°56′50″N   28°17′25″E
темп.,
°C
ветер,
м/с
пор.,
м/с
влажн.,
%
обл.,
%
осадки,
мм/ч
давл.,
гПа
погр.,
м
13 апреля, вт
вт1300:00+7юв3480100 0.0 102058
03:00+6ююв228297 0.0 102013
06:00+5ю128361 0.0 102010
09:00+9юв2368100 0.0 1019221
12:00+11юв3373100 0.0 1018418
15:00+12юв4468100 0.0 1018827
18:00+11вюв4680100 0.0 1017383
21:00+9юв2492100 0.4 1017118
14 апреля, ср
ср1400:00+8ююв3590100 0.1 1016171
03:00+8ююв2492100 0.4 1015130
06:00+8ююв2593100 0.8 1014152
09:00+8ююв4991100 1.6 1014306
12:00+9ююв3586100 0.4 1014220
15:00+13ю4554100 0.6 10131653
18:00+13юв3561100 0.1 1012207
21:00+9ююв3882100 0.3 1013215
15 апреля, чт
чт1500:00+9вюв2481100 0.0 101387
03:00+7ююв368999 0.1 1013173
06:00+7всв1296100 2.4 1012132
09:00+7всв3895100 3.8 1012427
12:00+10в4480100 0.2 1011782
15:00+11всв3477100 0.7 1011694
18:00+9в3791100 1.4 1010342
21:00+8всв3696100 3.6 1009346
16 апреля, пт
пт1600:00+7ссв4895100 2.0 1008441
03:00+6юв5893100 3.1 1008607
06:00+5в5891100 0.1 1009738
09:00+5в5789100 0.2 1010807
12:00+4вюв5689100 0.1 1012863
15:00+4вюв5790100 0.2 1014801
18:00+6вюв247434 0.1 1015776
21:00+4с11846 0.1 101610
17 апреля, сб
сб1700:00+3ссв228745 0.0 101723
03:00+2св33935 0.0 101847
06:00+2всв22925 0.0 101925
09:00+7св237553 0.0 1019299
12:00+11св3459100 0.1 10191339
15:00+11всв445769 0.4 10191228
18:00+11всв455961 0.5 10191201
21:00+8в348093 1.1 102183